ROMMA est une association bénévole à but non lucratif. Votre soutien est indispensable : ADHERER à ROMMA ou FAIRE un DON

Val-d'Arly - (73, Savoie)

Beaufortain (2050 m)   Longitude: 06° 35' 21" E   Latitude: 45° 46' 53" N Station romma n°118
 

Détail journalier du     <<     >>

Température Humidité Vent Dir Rafale Dir. rafale Ensol.
Heure (°C) (%) (km/h) (km/h) (min)
01:00 -5.1956---8---0
02:00 -5.1958---15---0
03:00 -5.2953---8---0
04:00 -5.4943---6---0
05:00 -5.7946---13---0
06:00 -5.7946---15---0
07:00 -5.7944---10---0
08:00 -5.49511---21---0
09:00 -5.3958---18---0
10:00 -5.19510---16---0
11:00 -4.5957---15---0
12:00 -5.1956---15---0
13:00 -4.6954---16---0
14:00 -4.4952---6---0
15:00 -4.6951---6---0
16:00 -5.4954---19---0
17:00 -5.9949---21---0
18:00 -6.29415---24---0
19:00 -6.49410---16---0
20:00 -6.29413---19---0
21:00 -6.39417---24---0
22:00 -5.49319---27---0
23:00 -4.89119---29---0
minuit -6.29317---24---0

Graphique du 09-11-2019

 

Serveur OMMA